FW0837 Weather Reports


Display with metric or nautical units.
time (UTC)temp
F
wind
direction
speed
MPH
gust
MPH
rain 1hr
in
rain 24hr
in
rain mn
in
humidity
%
barometer
mb
20260902161101 69 83 1.0 8.0 0.00 0.01 0.00 82 1022.9
20260902160557 69 83 3.0 8.0 0.00 0.01 0.00 81 1022.9
20260902160116 69 79 2.0 8.0 0.00 0.01 0.00 82 1023.1
20260902155557 69 83 2.0 9.0 0.00 0.01 0.00 81 1023.1
20260902155057 70 58 4.0 9.0 0.00 0.01 0.00 80 1023.0
20260902154559 70 103 2.0 9.0 0.00 0.01 0.00 81 1023.2
20260902154056 70 58 1.0 6.0 0.00 0.01 0.00 80 1023.1
20260902153556 71 27 3.0 9.0 0.00 0.01 0.00 80 1023.1
20260902153057 70 118 1.0 9.0 0.00 0.01 0.00 82 1023.1
20260902152552 70 104 5.0 9.0 0.00 0.01 0.00 82 1023.1
20260902152051 69 78 2.0 6.0 0.00 0.01 0.00 84 1023.1
20260902151555 68 86 2.0 8.0 0.00 0.01 0.00 83 1023.2
20260902151049 68 85 2.0 7.0 0.00 0.01 0.00 84 1023.4
20260902150547 68 65 2.0 8.0 0.00 0.01 0.00 84 1023.3
20260902150046 68 99 1.0 8.0 0.00 0.01 0.00 85 1023.2
20260902145545 68 87 2.0 6.0 0.00 0.03 0.00 85 1023.2
20260902145044 68 74 2.0 7.0 0.00 0.03 0.00 86 1023.2
20260902144544 67 66 1.0 7.0 0.00 0.03 0.00 87 1023.1
20260902144043 67 93 2.0 7.0 0.00 0.03 0.00 87 1023.0
20260902143542 67 41 2.0 7.0 0.00 0.03 0.00 87 1023.0
20260902143044 67 73 2.0 4.0 0.00 0.03 0.00 88 1022.8
20260902142540 67 183 1.0 8.0 0.00 0.03 0.00 89 1022.8
20260902142040 66 49 2.0 9.0 0.00 0.03 0.00 89 1022.7
20260902141537 66 55 2.0 11.0 0.00 0.03 0.00 89 1022.6
20260902141036 66 95 5.0 11.0 0.00 0.03 0.00 90 1022.7
20260902140536 66 93 2.0 6.0 0.00 0.03 0.00 90 1022.8
20260902140038 65 113 3.0 6.0 0.00 0.03 0.00 90 1022.6
20260902135534 65 14 3.0 6.0 0.00 0.18 0.00 91 1022.7
20260902135033 65 70 1.0 11.0 0.00 0.18 0.00 91 1022.5
20260902134538 65 79 2.0 8.0 0.00 0.18 0.00 92 1022.4
20260902134031 65 55 3.0 7.0 0.00 0.18 0.00 92 1022.5
20260902133533 64 85 3.0 8.0 0.00 0.18 0.00 92 1022.6
20260902133029 64 71 3.0 8.0 0.00 0.18 0.00 92 1022.4
20260902132528 64 10 1.0 5.0 0.00 0.18 0.00 92 1022.7
20260902132027 64 79 1.0 9.0 0.00 0.18 0.00 92 1022.7
20260902131526 63 79 1.0 9.0 0.00 0.18 0.00 92 1022.7
20260902131028 63 88 1.0 4.0 0.00 0.18 0.00 93 1022.8
20260902130525 63 91 2.0 8.0 0.00 0.18 0.00 92 1022.7
20260902130024 63 69 1.0 6.0 0.00 0.18 0.00 93 1022.7
20260902125524 63 73 2.0 6.0 0.00 0.45 0.00 93 1022.6
20260902125023 63 70 0.0 3.0 0.00 0.45 0.00 93 1022.7
20260902124522 63 70 1.0 5.0 0.00 0.45 0.00 93 1022.5
20260902124021 63 73 2.0 5.0 0.00 0.45 0.00 93 1022.7
20260902123520 63 73 2.0 5.0 0.00 0.45 0.00 93 1022.7
20260902123025 62 57 2.0 4.0 0.00 0.45 0.00 93 1022.7
20260902122519 62 56 1.0 4.0 0.00 0.45 0.00 93 1022.9
20260902122019 62 52 1.0 5.0 0.00 0.45 0.00 93 1022.9
20260902121518 62 52 1.0 5.0 0.00 0.45 0.00 93 1022.8
20260902121018 62 79 1.0 2.0 0.00 0.45 0.00 93 1022.9
20260902120518 62 79 1.0 2.0 0.00 0.45 0.00 93 1022.8
20260902120017 62 79 0.0 4.0 0.00 0.45 0.00 93 1022.8
20260902115516 62 79 0.0 3.0 0.00 0.45 0.00 93 1022.8
20260902115016 62 79 1.0 3.0 0.00 0.45 0.00 93 1022.8
20260902114516 62 79 0.0 3.0 0.00 0.45 0.00 93 1022.8
20260902114017 62 79 0.0 5.0 0.00 0.45 0.00 93 1022.9
20260902113514 62 77 1.0 5.0 0.00 0.45 0.00 93 1022.8
20260902113014 62 77 0.0 5.0 0.00 0.45 0.00 93 1022.9
20260902112513 62 75 0.0 3.0 0.00 0.45 0.00 93 1022.7
20260902112013 62 75 0.0 2.0 0.00 0.45 0.00 93 1022.7
20260902111533 62 74 0.0 2.0 0.00 0.45 0.00 93 1022.5
20260902111011 62 75 0.0 3.0 0.00 0.45 0.00 93 1022.6
20260902110511 62 75 1.0 3.0 0.00 0.45 0.00 93 1022.4
20260902110031 62 75 0.0 3.0 0.00 0.45 0.00 93 1022.2
20260902105510 62 75 0.0 2.0 0.00 0.45 0.00 93 1022.2
20260902105009 62 75 0.0 3.0 0.00 0.45 0.00 93 1022.2
20260902104509 62 75 0.0 3.0 0.00 0.45 0.00 93 1022.1
20260902104007 62 75 0.0 3.0 0.00 0.45 0.00 93 1022.0
20260902103507 62 75 0.0 3.0 0.00 0.45 0.00 93 1022.0
20260902103007 62 75 0.0 2.0 0.00 0.45 0.00 93 1021.9
20260902102508 62 75 0.0 2.0 0.00 0.45 0.00 93 1022.0
20260902102004 62 75 0.0 1.0 0.00 0.45 0.00 93 1022.0
20260902101504 62 75 0.0 1.0 0.00 0.45 0.00 93 1022.1
20260902101003 62 75 0.0 2.0 0.00 0.45 0.00 93 1022.0
20260902100505 62 75 0.0 3.0 0.00 0.45 0.00 93 1021.9
20260902100001 62 75 0.0 3.0 0.00 0.45 0.00 93 1021.7
20260902095501 62 75 0.0 3.0 0.00 0.45 0.00 93 1021.5
20260902095002 62 75 1.0 5.0 0.00 0.45 0.00 93 1021.5
20260902094501 62 76 2.0 5.0 0.00 0.45 0.00 93 1021.5
20260902094002 62 77 0.0 2.0 0.00 0.45 0.00 93 1021.6
20260902093501 62 77 0.0 2.0 0.00 0.45 0.00 93 1021.7
20260902093101 62 77 0.0 2.0 0.00 0.45 0.00 93 1021.6
20260902092600 62 77 0.0 2.0 0.00 0.45 0.00 93 1021.4
20260902092100 62 77 0.0 2.0 0.00 0.45 0.00 93 1021.6
20260902091602 62 77 0.0 2.0 0.00 0.45 0.00 93 1021.4
20260902091059 62 77 0.0 0.0 0.00 0.45 0.00 93 1021.3
20260902090559 62 77 0.0 0.0 0.00 0.45 0.00 93 1021.4
20260902090059 62 77 0.0 1.0 0.00 0.45 0.00 93 1021.5
20260902085558 62 77 0.0 2.0 0.00 0.45 0.00 93 1021.4
20260902085059 62 77 0.0 4.0 0.00 0.45 0.00 93 1021.3
20260902084604 62 77 1.0 4.0 0.00 0.45 0.00 93 1021.2
20260902084058 62 77 1.0 4.0 0.00 0.45 0.00 93 1021.0
20260902083558 62 77 1.0 2.0 0.00 0.45 0.00 93 1021.2
20260902083107 62 77 0.0 2.0 0.00 0.45 0.00 93 1021.3
20260902082600 62 77 0.0 0.0 0.00 0.45 0.00 93 1021.4
20260902082057 62 77 0.0 0.0 0.00 0.45 0.00 93 1021.4
20260902081556 62 77 0.0 0.0 0.00 0.45 0.00 93 1021.5
20260902081056 62 77 0.0 0.0 0.00 0.45 0.00 93 1021.5
20260902080556 62 77 0.0 1.0 0.00 0.45 0.00 93 1021.5
20260902080112 62 77 0.0 2.0 0.00 0.45 0.00 93 1021.5
20260902075556 62 77 0.0 2.0 0.00 0.45 0.00 93 1021.6
20260902075055 62 77 0.0 0.0 0.00 0.45 0.00 93 1021.6
20260902074555 62 77 0.0 1.0 0.00 0.45 0.00 93 1021.6
20260902074056 62 77 0.0 1.0 0.00 0.45 0.00 93 1021.5
20260902073555 62 77 0.0 1.0 0.00 0.45 0.00 93 1021.6
20260902073055 62 77 0.0 1.0 0.00 0.45 0.00 93 1021.6
20260902072555 62 77 0.0 1.0 0.00 0.45 0.00 93 1021.6
20260902072053 62 77 0.0 1.0 0.00 0.45 0.00 93 1021.6
20260902071553 62 77 0.0 1.0 0.00 0.45 0.00 93 1021.4
20260902071056 62 77 0.0 3.0 0.00 0.45 0.00 93 1021.4
20260902070552 62 77 0.0 3.0 0.00 0.45 0.00 93 1021.3
20260902070052 62 77 0.0 0.0 0.00 0.45 0.00 93 1021.2
20260902065552 62 77 0.0 0.0 0.00 0.45 0.00 93 1021.3
20260902065052 62 77 0.0 0.0 0.00 0.45 0.00 93 1021.4
20260902064554 62 77 0.0 0.0 0.00 0.45 0.00 93 1021.3
20260902064051 62 77 0.0 0.0 0.00 0.45 0.00 93 1021.4
20260902063551 62 77 0.0 0.0 0.00 0.45 0.00 93 1021.3
20260902063051 62 77 0.0 0.0 0.00 0.45 0.00 93 1021.3
20260902062551 62 77 0.0 0.0 0.00 0.45 0.00 93 1021.3
20260902062052 62 77 0.0 0.0 0.00 0.45 0.00 93 1021.3
20260902061610 62 77 0.0 0.0 0.00 0.45 0.00 93 1021.3
20260902061052 62 77 0.0 1.0 0.00 0.45 0.00 93 1021.3
20260902060550 62 77 0.0 1.0 0.00 0.45 0.00 93 1021.3
20260902060052 62 77 0.0 1.0 0.00 0.45 0.00 93 1021.3
20260902055549 62 77 0.0 1.0 0.00 0.45 0.00 93 1021.4
20260902055049 62 77 0.0 0.0 0.00 0.45 0.00 93 1021.4
20260902054551 62 77 0.0 0.0 0.00 0.45 0.00 93 1021.4
20260902054052 62 77 0.0 0.0 0.00 0.45 0.00 93 1021.4
20260902053549 62 77 0.0 0.0 0.00 0.45 0.00 93 1021.4
20260902053047 62 77 0.0 0.0 0.00 0.45 0.00 93 1021.2
20260902052547 62 77 0.0 0.0 0.00 0.45 0.00 93 1021.1
20260902052045 62 77 0.0 0.0 0.00 0.45 0.00 93 1021.1
20260902051547 62 77 0.0 0.0 0.00 0.45 0.00 93 1021.1
20260902051044 62 77 0.0 0.0 0.00 0.45 0.00 93 1020.8
20260902050544 62 77 0.0 0.0 0.00 0.45 0.00 93 1020.8
20260902050043 62 77 0.0 0.0 0.00 0.45 0.00 93 1020.7
20260902045542 62 77 0.0 0.0 0.00 0.45 0.00 93 1020.7
20260902045041 62 77 0.0 0.0 0.00 0.45 0.00 93 1020.6
20260902044540 62 77 0.0 0.0 0.00 0.45 0.00 93 1020.4
20260902044040 62 77 0.0 0.0 0.00 0.45 0.00 93 1020.4
20260902043539 62 77 0.0 0.0 0.00 0.45 0.00 93 1020.3
20260902043047 62 77 0.0 0.0 0.00 0.45 0.00 93 1020.3
20260902042538 62 77 0.0 0.0 0.00 0.45 0.00 93 1020.4
20260902042039 62 77 0.0 0.0 0.00 0.45 0.00 92 1020.3
20260902041538 62 77 0.0 0.0 0.00 0.45 0.00 92 1020.3
20260902041036 62 77 0.0 0.0 0.00 0.45 0.00 92 1020.2
20260902040539 62 77 0.0 0.0 0.00 0.45 0.00 92 1020.2
20260902040036 62 77 0.0 0.0 0.00 0.45 0.00 92 1020.1
20260902035538 62 77 0.0 0.0 0.00 0.45 0.45 92 1020.0
20260902035035 62 77 0.0 0.0 0.00 0.45 0.45 92 1019.9
20260902034535 62 77 0.0 0.0 0.00 0.45 0.45 92 1019.7
20260902034038 62 77 0.0 0.0 0.00 0.45 0.45 92 1019.7
20260902033534 62 77 0.0 0.0 0.00 0.45 0.45 92 1019.7
20260902033034 62 77 0.0 0.0 0.00 0.45 0.45 92 1019.7
20260902032535 62 77 0.0 1.0 0.00 0.45 0.45 92 1019.8
20260902032033 62 77 0.0 1.0 0.00 0.45 0.45 92 1019.8
20260902031534 62 77 0.0 0.0 0.00 0.45 0.45 92 1019.8
20260902031035 62 77 0.0 0.0 0.00 0.45 0.45 92 1019.7
20260902030537 62 77 0.0 0.0 0.00 0.45 0.45 92 1019.8
20260902030033 62 77 0.0 0.0 0.00 0.45 0.45 92 1019.9
20260902025533 62 77 0.0 0.0 0.00 0.45 0.45 92 1019.9
20260902025035 62 77 0.0 0.0 0.00 0.45 0.45 92 1019.9
20260902024534 62 77 0.0 0.0 0.00 0.45 0.45 92 1020.0
20260902024032 62 77 0.0 0.0 0.00 0.45 0.45 92 1020.0
20260902023532 62 77 0.0 0.0 0.00 0.45 0.45 92 1019.9
20260902023032 62 77 0.0 0.0 0.00 0.45 0.45 92 1020.0
20260902022532 62 77 0.0 0.0 0.00 0.45 0.45 92 1019.9
20260902022033 62 77 0.0 0.0 0.00 0.45 0.45 92 1019.9
20260902021532 62 77 0.0 0.0 0.00 0.45 0.45 92 1019.9
20260902021034 62 77 0.0 0.0 0.00 0.45 0.45 92 1020.1
20260902020532 62 77 0.0 0.0 0.00 0.45 0.45 92 1020.0
20260902020032 62 77 0.0 0.0 0.00 0.45 0.45 92 1020.1
20260902015532 62 77 0.0 0.0 0.00 0.45 0.45 92 1020.1
20260902015031 63 77 0.0 0.0 0.00 0.45 0.45 92 1020.1
20260902014535 63 76 0.0 0.0 0.00 0.45 0.45 92 1020.0
20260902014030 63 77 0.0 0.0 0.00 0.45 0.45 92 1020.0
20260902013530 63 77 0.0 0.0 0.00 0.45 0.45 92 1019.9
20260902013031 63 77 0.0 0.0 0.00 0.45 0.45 92 1019.9
20260902012531 63 77 0.0 0.0 0.00 0.45 0.45 92 1020.0
20260902012030 63 77 0.0 0.0 0.00 0.45 0.45 92 1020.0
20260902011530 63 77 0.0 0.0 0.00 0.45 0.45 92 1020.0
20260902011029 63 77 0.0 0.0 0.00 0.45 0.45 91 1020.0
20260902010529 63 77 0.0 0.0 0.00 0.45 0.45 91 1019.8
20260902010041 63 77 0.0 0.0 0.00 0.45 0.45 91 1019.8
20260902005528 63 77 0.0 0.0 0.00 0.45 0.45 91 1019.8
20260902005027 63 77 0.0 0.0 0.00 0.45 0.45 91 1019.7
20260902004528 63 77 0.0 0.0 0.00 0.45 0.45 91 1019.6
20260902004027 63 77 0.0 0.0 0.00 0.45 0.45 91 1019.6
20260902003527 63 77 0.0 0.0 0.00 0.45 0.45 91 1019.6
20260902003027 63 77 0.0 0.0 0.00 0.45 0.45 91 1019.6
20260902002525 63 77 0.0 0.0 0.00 0.45 0.45 91 1019.5
20260902002025 63 77 0.0 0.0 0.00 0.45 0.45 91 1019.3
20260902001527 63 77 0.0 0.0 0.00 0.45 0.45 91 1019.3
20260902001024 63 77 0.0 0.0 0.00 0.45 0.45 91 1019.2
20260902000524 63 77 0.0 0.0 0.00 0.45 0.45 91 1019.1
20260902000027 63 77 0.0 0.0 0.00 0.45 0.45 91 1018.9
20260901235524 63 77 0.0 0.0 0.00 0.45 0.45 91 1019.0
20260901235024 63 77 0.0 0.0 0.00 0.45 0.45 91 1019.0
20260901234523 63 77 0.0 0.0 0.00 0.45 0.45 91 1019.0
20260901234024 63 77 0.0 0.0 0.00 0.45 0.45 91 1019.0
20260901233524 64 77 0.0 0.0 0.00 0.45 0.45 91 1019.1
20260901233022 64 77 0.0 0.0 0.00 0.45 0.45 91 1019.3
20260901232524 63 77 0.0 0.0 0.00 0.45 0.45 91 1019.2
20260901232023 63 77 0.0 0.0 0.00 0.45 0.45 91 1019.2
20260901231527 64 77 0.0 0.0 0.00 0.45 0.45 91 1019.1
20260901231026 64 77 0.0 0.0 0.00 0.45 0.45 91 1019.1
20260901230522 64 77 0.0 0.0 0.00 0.45 0.45 91 1019.1
20260901230037 64 77 0.0 0.0 0.00 0.45 0.45 91 1019.0
20260901225523 64 77 0.0 0.0 0.00 0.45 0.45 91 1019.1
20260901225021 64 77 0.0 0.0 0.00 0.45 0.45 91 1019.1
20260901224522 64 77 0.0 0.0 0.00 0.45 0.45 91 1019.1
20260901224021 64 77 0.0 1.0 0.00 0.45 0.45 91 1019.1
20260901223521 64 77 0.0 1.0 0.00 0.45 0.45 91 1019.0
20260901223021 64 77 0.0 1.0 0.00 0.45 0.45 91 1019.0
20260901222520 64 77 0.0 1.0 0.00 0.45 0.45 91 1019.0
20260901222020 64 77 0.0 1.0 0.00 0.45 0.45 91 1019.0
20260901221521 64 77 0.0 1.0 0.00 0.45 0.45 91 1019.0
20260901221022 64 77 0.0 3.0 0.00 0.45 0.45 91 1019.0
20260901220520 64 77 0.0 4.0 0.00 0.45 0.45 91 1019.0
20260901220021 64 77 1.0 4.0 0.00 0.45 0.45 91 1019.0
20260901215522 64 77 1.0 4.0 0.00 0.45 0.45 91 1018.9
20260901215020 65 77 1.0 4.0 0.00 0.45 0.45 91 1018.9
20260901214519 65 77 1.0 3.0 0.00 0.45 0.45 91 1018.9
20260901214019 65 77 0.0 3.0 0.00 0.45 0.45 91 1018.9
20260901213521 65 77 2.0 3.0 0.00 0.45 0.45 91 1019.0
20260901213049 65 77 1.0 4.0 0.00 0.45 0.45 90 1019.0
20260901212522 65 77 1.0 4.0 0.00 0.45 0.45 91 1018.9
20260901212019 65 77 1.0 4.0 0.00 0.45 0.45 90 1018.8
20260901211534 65 77 2.0 4.0 0.00 0.45 0.45 90 1018.8
20260901211020 65 77 1.0 5.0 0.00 0.45 0.45 90 1018.7
20260901210519 65 77 1.0 5.0 0.00 0.45 0.45 90 1018.6
20260901210022 65 77 1.0 5.0 0.00 0.45 0.45 90 1018.6
20260901205519 65 77 2.0 4.0 0.00 0.45 0.45 90 1018.6
20260901205019 65 77 2.0 5.0 0.00 0.45 0.45 90 1018.6
20260901204517 65 78 2.0 5.0 0.00 0.45 0.45 90 1018.6
20260901204017 66 77 0.0 4.0 0.00 0.45 0.45 90 1018.5
20260901203519 66 77 1.0 4.0 0.00 0.45 0.45 90 1018.5
20260901203027 66 77 1.0 4.0 0.00 0.45 0.45 90 1018.2
20260901202513 65 77 2.0 5.0 0.00 0.45 0.45 90 1018.2
20260901202014 65 77 2.0 5.0 0.00 0.45 0.45 91 1018.3
20260901201514 65 77 1.0 6.0 0.00 0.45 0.45 91 1018.2
20260901201015 65 77 3.0 6.0 0.00 0.45 0.45 91 1018.3
20260901200520 65 78 1.0 4.0 0.00 0.45 0.45 91 1018.2
20260901200029 65 78 2.0 4.0 0.00 0.45 0.45 91 1018.4
20260901195513 66 77 0.0 4.0 0.00 0.45 0.45 91 1018.4
20260901195012 65 78 1.0 5.0 0.00 0.45 0.45 91 1018.3
20260901194513 65 77 1.0 5.0 0.00 0.45 0.45 91 1018.3
20260901194012 65 77 2.0 4.0 0.00 0.45 0.45 91 1018.4
20260901193512 65 78 1.0 4.0 0.00 0.45 0.45 91 1018.3
20260901193017 65 79 1.0 3.0 0.00 0.45 0.45 91 1018.5
20260901192511 66 78 0.0 4.0 0.00 0.45 0.45 92 1018.5
20260901192011 65 78 1.0 4.0 0.00 0.45 0.45 92 1018.5
20260901191513 65 79 2.0 4.0 0.00 0.45 0.45 92 1018.5
20260901191010 65 79 1.0 5.0 0.00 0.45 0.45 92 1018.5
20260901190513 65 79 3.0 5.0 0.00 0.45 0.45 92 1018.4
20260901190010 65 79 2.0 5.0 0.00 0.45 0.45 92 1018.4
20260901185511 65 83 2.0 6.0 0.00 0.45 0.45 92 1018.4
20260901185009 65 84 1.0 4.0 0.00 0.45 0.45 92 1018.4
20260901184508 65 85 2.0 4.0 0.00 0.45 0.45 92 1018.4
20260901184008 65 83 1.0 4.0 0.00 0.45 0.45 92 1018.4
20260901183508 65 83 1.0 4.0 0.01 0.45 0.45 92 1018.4
20260901183009 65 84 1.0 6.0 0.01 0.45 0.45 93 1018.4
20260901182507 64 89 0.0 6.0 0.01 0.45 0.45 92 1018.4
20260901182007 64 90 2.0 6.0 0.01 0.45 0.45 92 1018.3
20260901181511 64 81 3.0 7.0 0.01 0.45 0.45 92 1018.3
20260901181007 64 65 3.0 7.0 0.01 0.45 0.45 92 1018.3
20260901180507 64 81 2.0 7.0 0.01 0.45 0.45 92 1018.2
20260901180006 64 75 3.0 7.0 0.01 0.45 0.45 92 1018.1
20260901175505 64 79 2.0 8.0 0.01 0.45 0.45 92 1018.1
20260901175005 64 78 2.0 8.0 0.01 0.45 0.45 92 1018.0
20260901174505 64 86 2.0 8.0 0.01 0.45 0.45 92 1017.9
20260901174007 64 89 3.0 8.0 0.01 0.45 0.45 92 1017.8
20260901173505 64 62 3.0 5.0 0.00 0.44 0.44 92 1017.8
20260901173004 64 88 0.0 2.0 0.00 0.44 0.44 92 1017.8
20260901172504 64 88 0.0 6.0 0.00 0.44 0.44 93 1018.2
20260901172006 63 89 3.0 6.0 0.00 0.44 0.44 92 1017.8
20260901171504 64 85 1.0 4.0 0.00 0.44 0.44 92 1018.0
20260901171003 64 87 2.0 4.0 0.00 0.44 0.44 92 1018.2
20260901170503 64 61 1.0 3.0 0.00 0.44 0.44 92 1018.2
20260901170003 64 62 1.0 5.0 0.00 0.44 0.44 92 1018.2
20260901165502 64 62 1.0 5.0 0.00 0.44 0.44 92 1018.2
20260901165006 64 62 1.0 8.0 0.00 0.44 0.44 92 1018.2
20260901164502 64 62 2.0 8.0 0.00 0.44 0.44 92 1018.2
20260901164001 64 60 0.0 3.0 0.00 0.44 0.44 92 1018.3
20260901163502 64 60 1.0 3.0 0.00 0.44 0.44 93 1018.3
20260901163002 64 61 1.0 4.0 0.00 0.44 0.44 92 1018.5
20260901162501 64 60 1.0 4.0 0.00 0.44 0.44 92 1018.5
20260901162000 63 61 2.0 4.0 0.00 0.44 0.44 92 1018.5
20260901161601 63 60 2.0 3.0 0.00 0.44 0.44 92 1018.5
20260901161501 63 60 1.0 3.0 0.00 0.44 0.44 92 1018.5